COSMOS 2251 DEB, 37270

Orbit data source: Space-Track

COSMOS 2251 DEB, 37270 is space debris in LEO originally from a launch on Wed, 16 Jun 1993 UTC launched from the Plesetsk Missile And Space Complex (PKMTR). The debris from Iridium 33, an American commercial communications satellite, has been tracked extensively since its accidental collision with the defunct Russian satellite Cosmos 2251 in 2009. This event, occurring at high speed in low Earth orbit (LEO), generated thousands of pieces of space debris, significantly increasing the risk of further collisions. The Iridium 33 debris cloud has impacted space traffic management and orbital debris mitigation strategies, making it a subject of ongoing study in space situational awareness.

Loading next visibility...
Identifier
37270, 1993-036BHJ
Orbit
LEO
Country
Flag of CISCIS
Related business
Manufacturer
Unknown
Mission
Spacecraft
Bus & Motor
Unknown
Mass
Unknown
Launch date (UTC)
1993-06-16 (32 years ago)
Launch vehicle
Unknown
Launch site
Plesetsk Missile And Space Complex (PKMTR)
Object type
Payload
Rocket body
Debris
Shape & HBR
Unknown shape, 0.1 m
Radar Cross Section
Small (<0.1 m²)

Expand to show TLE details & history
Last TLE update: 1 day ago

TLE from 1 day ago
0 COSMOS 2251 DEB
1 37270U 93036BHJ 25298.75319694  .00003575  00000-0  28705-2 0  9994
2 37270  73.9330  54.1592 0400182  75.9397 288.5848 13.59354245764176
Epoch: 2025-10-25T18:04Z
TLE epoch observation values (Epoch: 2025-10-25T18:04:36.215Z)
Latitude
Longitude
108.62908°
Altitude
956.821 km
Speed
7.415 km/s
True Right ascension
03h 36m 38s
True Declination
0° 00' 00"
Sunlit
Object was in full shadow at epoch
Visualization orbit readout
Latitude
Unknown
Longitude
Unknown
Altitude
Unknown
Speed
Unknown
Apparent Right ascension
Unknown
Apparent Declination
Unknown
Sunlit
N/A
Visualization observer readout
Local Sidereal Time
23:43:59
Azimuth
Unknown
Elevation
Unknown
Doppler factor
Unknown
Orbital elements
Apogee altitude
1,332.443 km
Perigee altitude
739.062 km
Semi-major axis
7,413.889 km
Eccentricity
0.04002
Inclination
73.933°
RAAN
54.1592°
Arg. of periapsis
75.9397°
True anomaly
284.17219°
Mean anomaly
288.5848°
Eccentric anomaly
286.38505°
Mean motion
3.39996 °/min
Orbital period
105.88 mins
BSTAR
0.0028705
Loading maneuver chart data...
Computing Atmospheric mass density...

Documentation

Showing up to 5 results
|